CW8192 Weather Reports


time (UTC)temp
C
wind
direction
speed
KPH
gust
KPH
rain 1hr
cm
rain 24hr
cm
rain mn
cm
humidity
%
barometer
mb
20260506185705 16 208 8.0 19.3 0.10 1.32 1.07 94 1004.4
20260506184705 16 205 11.3 19.3 0.13 1.32 1.07 93 1004.5
20260506184206 16 209 6.4 16.1 0.13 1.30 1.04 93 1004.4
20260506183705 16 194 11.3 19.3 0.13 1.30 1.04 93 1004.4
20260506183205 16 215 11.3 24.1 0.15 1.30 1.04 92 1004.4
20260506182705 16 175 6.4 19.3 0.15 1.30 1.04 92 1004.5
20260506182205 16 210 9.7 24.1 0.18 1.30 1.04 92 1004.6
20260506181705 16 194 11.3 24.1 0.15 1.27 1.02 92 1004.7
20260506180706 16 214 12.9 24.1 0.13 1.22 0.97 92 1004.8
20260506180205 16 209 9.7 19.3 0.15 1.22 0.97 93 1004.8
20260506175205 16 221 8.0 19.3 0.18 1.19 0.94 92 1004.9
20260506174705 16 201 8.0 19.3 0.20 1.19 0.94 92 1004.8
20260506173705 16 209 14.5 24.1 0.20 1.17 0.91 91 1004.8
20260506173205 16 212 8.0 19.3 0.20 1.14 0.89 92 1004.8
20260506172204 16 203 14.5 27.4 0.23 1.12 0.86 92 1004.7
20260506171705 16 186 11.3 24.1 0.25 1.12 0.86 92 1004.8
20260506171205 16 186 11.3 25.7 0.28 1.09 0.84 92 1005.0
20260506170705 15 199 14.5 25.7 0.30 1.09 0.84 91 1005.1
20260506170206 15 197 11.3 27.4 0.33 1.07 0.81 90 1005.3
20260506165709 15 198 8.0 14.5 0.33 1.04 0.79 89 1005.5
20260506165205 15 213 9.7 19.3 0.33 1.02 0.76 88 1005.4
20260506164705 15 200 9.7 24.1 0.33 0.99 0.74 88 1005.4
20260506164205 15 209 8.0 22.5 0.33 0.97 0.71 88 1005.6
20260506163704 15 199 12.9 24.1 0.36 0.97 0.71 88 1005.5
20260506163204 15 203 11.3 20.9 0.38 0.94 0.69 88 1005.6
20260506162705 15 198 6.4 20.9 0.38 0.91 0.66 88 1005.5
20260506161705 15 209 9.7 19.3 0.38 0.86 0.61 88 1005.7
20260506161205 15 207 6.4 19.3 0.33 0.81 0.56 88 1005.8
20260506160705 15 210 9.7 19.3 0.33 0.79 0.53 88 1005.9
20260506160206 15 187 8.0 16.1 0.28 0.74 0.48 88 1006.1
20260506155704 14 188 9.7 19.3 0.28 0.71 0.46 88 1006.1
20260506154205 13 200 4.8 8.0 0.28 0.64 0.38 88 1006.3
20260506153706 13 189 0.0 4.8 0.25 0.61 0.36 88 1006.3
20260506152705 13 130 0.0 0.0 0.23 0.53 0.28 88 1006.2
20260506152205 13 129 0.0 0.0 0.23 0.51 0.25 88 1006.3
20260506151705 13 138 0.0 0.0 0.20 0.48 0.23 88 1006.3
20260506151205 13 119 0.0 0.0 0.20 0.48 0.23 88 1006.3
20260506150705 13 119 0.0 0.0 0.18 0.46 0.20 88 1006.5
20260506150205 13 119 0.0 0.0 0.18 0.46 0.20 88 1006.5
20260506145705 13 119 0.0 0.0 0.15 0.43 0.18 88 1006.5
20260506145205 13 117 0.0 0.0 0.13 0.41 0.15 88 1006.6
20260506144704 13 117 0.0 0.0 0.10 0.38 0.13 88 1006.8
20260506144205 13 117 0.0 0.0 0.08 0.36 0.10 88 1006.8
20260506143705 13 126 0.0 0.0 0.08 0.36 0.10 88 1006.8
20260506142205 13 114 1.6 4.8 0.00 0.28 0.03 88 1006.9
20260506141705 13 115 1.6 3.2 0.00 0.28 0.03 88 1007.0
20260506141205 13 88 1.6 3.2 0.00 0.28 0.03 88 1007.0
20260506140705 12 85 3.2 3.2 0.00 0.28 0.03 88 1006.9
20260506140206 12 78 1.6 3.2 0.00 0.28 0.03 88 1007.1
20260506135705 12 78 1.6 3.2 0.00 0.28 0.03 88 1007.1
20260506134705 12 30 0.0 0.0 0.00 0.28 0.03 88 1006.8
20260506134205 12 30 0.0 0.0 0.00 0.28 0.03 88 1006.9
20260506132204 12 30 0.0 3.2 0.00 0.28 0.03 88 1006.6
20260506131705 12 30 0.0 0.0 0.00 0.28 0.03 88 1006.7
20260506131205 12 30 0.0 0.0 0.00 0.28 0.03 88 1006.8
20260506130705 12 30 1.6 3.2 0.00 0.28 0.03 88 1006.8
20260506130205 12 123 1.6 3.2 0.00 0.28 0.03 88 1006.8
20260506125705 12 111 0.0 4.8 0.00 0.28 0.03 88 1006.8
20260506125205 12 83 1.6 4.8 0.00 0.28 0.03 88 1006.8
20260506124205 12 101 1.6 4.8 0.00 0.28 0.03 88 1007.0
20260506123705 12 88 0.0 4.8 0.00 0.28 0.03 88 1007.3
20260506123205 12 91 1.6 4.8 0.00 0.28 0.03 88 1007.4
20260506122705 12 91 0.0 4.8 0.00 0.28 0.03 88 1007.5
20260506122205 12 103 0.0 0.0 0.00 0.28 0.03 88 1007.6
20260506121204 12 100 0.0 0.0 0.00 0.28 0.03 88 1007.6
20260506120705 12 103 0.0 1.6 0.00 0.28 0.03 88 1007.5
20260506120204 12 103 0.0 0.0 0.00 0.28 0.03 88 1007.6
20260506115204 12 103 0.0 1.6 0.00 0.28 0.03 88 1007.4
20260506114204 12 110 0.0 0.0 0.00 0.28 0.03 88 1007.1
20260506113706 12 111 0.0 0.0 0.00 0.28 0.03 88 1007.1
20260506113204 11 237 0.0 0.0 0.00 0.28 0.03 88 1007.1
20260506112706 11 225 0.0 0.0 0.00 0.28 0.03 88 1007.1
20260506110706 11 57 0.0 0.0 0.00 0.28 0.03 88 1006.9
20260506110205 11 273 0.0 0.0 0.00 0.28 0.03 88 1007.1
20260506105704 11 273 0.0 0.0 0.00 0.28 0.03 88 1007.0
20260506105204 11 273 0.0 0.0 0.00 0.28 0.03 88 1007.0
20260506104705 11 265 0.0 0.0 0.00 0.28 0.03 88 1007.0
20260506104204 11 259 0.0 0.0 0.00 0.28 0.03 88 1007.0
20260506103704 11 259 0.0 0.0 0.03 0.28 0.03 88 1006.9
20260506103205 11 259 0.0 0.0 0.03 0.28 0.03 88 1006.8
20260506102705 11 322 0.0 0.0 0.03 0.28 0.03 88 1006.6
20260506102205 11 269 0.0 0.0 0.03 0.28 0.03 88 1006.6
20260506101704 11 269 0.0 0.0 0.03 0.30 0.03 88 1006.6
20260506101204 11 179 0.0 0.0 0.03 0.33 0.03 88 1006.6
20260506100705 11 124 0.0 0.0 0.03 0.33 0.03 88 1006.3
20260506100204 11 127 0.0 0.0 0.03 0.33 0.03 88 1006.4
20260506095704 11 142 0.0 0.0 0.03 0.33 0.03 88 1006.4
20260506095205 11 142 0.0 0.0 0.03 0.33 0.03 88 1006.5
20260506094704 11 142 0.0 0.0 0.03 0.33 0.03 88 1006.7
20260506094204 11 142 0.0 0.0 0.03 0.33 0.03 88 1006.6
20260506093705 11 142 0.0 0.0 0.00 0.30 0.00 88 1006.5
20260506093204 11 143 0.0 0.0 0.00 0.30 0.00 88 1006.4
20260506092704 11 172 0.0 0.0 0.00 0.30 0.00 88 1006.4
20260506092205 11 172 0.0 0.0 0.00 0.30 0.00 88 1006.6
20260506091704 11 172 0.0 0.0 0.00 0.30 0.00 89 1006.6
20260506091205 11 172 0.0 0.0 0.00 0.30 0.00 89 1006.7
20260506090704 11 143 0.0 0.0 0.00 0.30 0.00 89 1006.6
20260506090205 11 117 0.0 0.0 0.00 0.30 0.00 89 1006.4
20260506085704 11 108 0.0 4.8 0.00 0.30 0.00 89 1006.5
20260506085204 11 145 0.0 3.2 0.00 0.30 0.00 89 1006.7
20260506084205 11 215 0.0 0.0 0.00 0.30 0.00 88 1006.9
20260506083705 12 215 0.0 0.0 0.00 0.30 0.00 88 1007.0
20260506083204 12 215 0.0 0.0 0.00 0.30 0.00 88 1007.0
20260506082705 12 215 0.0 0.0 0.00 0.30 0.00 88 1007.0
20260506082204 12 215 0.0 0.0 0.00 0.30 0.00 88 1007.0
20260506081705 12 215 0.0 0.0 0.00 0.30 0.00 88 1007.0
20260506081204 12 215 0.0 0.0 0.00 0.30 0.00 88 1007.0
20260506080704 12 215 0.0 0.0 0.00 0.30 0.00 88 1007.0
20260506080205 12 215 0.0 0.0 0.00 0.30 0.00 88 1007.0
20260506072704 12 215 0.0 1.6 0.00 0.30 0.00 88 1007.5
20260506072204 12 215 1.6 3.2 0.00 0.30 0.00 88 1007.6
20260506071704 12 71 0.0 3.2 0.00 0.30 0.00 89 1007.6
20260506071204 12 205 3.2 4.8 0.00 0.30 0.00 88 1007.8
20260506070704 12 44 0.0 0.0 0.00 0.30 0.00 88 1007.6
20260506070204 12 175 0.0 0.0 0.00 0.30 0.00 88 1007.7
20260506062204 13 175 0.0 0.0 0.00 0.30 0.00 88 1008.1
20260506061205 13 175 0.0 0.0 0.00 0.30 0.00 88 1008.0
20260506060705 13 175 0.0 0.0 0.00 0.30 0.00 89 1008.0
20260506060205 13 156 0.0 0.0 0.00 0.30 0.00 89 1008.0
20260506051205 13 134 0.0 0.0 0.00 0.30 0.00 89 1008.2
20260506050705 13 134 0.0 0.0 0.00 0.30 0.00 89 1008.3
20260506050204 13 134 0.0 0.0 0.00 0.30 0.00 90 1008.3
20260506044704 13 107 1.6 4.8 0.00 0.30 0.00 90 1008.5
20260506044204 14 74 0.0 0.0 0.00 0.30 0.00 90 1008.5
20260506043704 14 60 0.0 0.0 0.00 0.30 0.00 90 1008.5
20260506043204 14 333 0.0 0.0 0.00 0.30 0.00 90 1008.6
20260506041705 14 317 0.0 0.0 0.00 0.30 0.00 89 1008.4
20260506040704 14 355 0.0 3.2 0.00 0.30 0.00 89 1008.3
20260506035204 15 319 1.6 4.8 0.05 0.30 0.30 89 1008.1
20260506034705 15 311 1.6 4.8 0.05 0.30 0.30 89 1007.9
20260506034205 15 319 1.6 3.2 0.05 0.30 0.30 89 1007.8
20260506033705 15 358 1.6 3.2 0.05 0.30 0.30 90 1007.7
20260506033205 15 0 3.2 4.8 0.05 0.30 0.30 90 1007.4
20260506032704 15 131 4.8 8.0 0.08 0.30 0.30 90 1007.5
20260506032204 15 116 0.0 4.8 0.13 0.30 0.30 91 1007.5
20260506031204 15 93 3.2 4.8 0.15 0.30 0.30 91 1007.2
20260506030704 15 69 0.0 0.0 0.15 0.30 0.30 91 1007.6
20260506025705 15 87 0.0 1.6 0.13 0.25 0.25 93 1007.9
20260506025204 15 88 0.0 1.6 0.13 0.25 0.25 93 1007.5
20260506024705 15 89 3.2 4.8 0.13 0.25 0.25 93 1007.1
20260506024204 15 48 1.6 3.2 0.13 0.25 0.25 94 1007.2
20260506023205 15 126 0.0 3.2 0.13 0.25 0.25 94 1007.2
20260506022704 16 97 1.6 3.2 0.10 0.23 0.23 94 1007.1
20260506022205 16 58 0.0 1.6 0.05 0.18 0.18 94 1007.4
20260506021704 16 52 0.0 1.6 0.03 0.15 0.15 94 1007.4
20260506021204 16 52 1.6 3.2 0.03 0.15 0.15 95 1007.0
20260506020704 16 58 1.6 4.8 0.03 0.15 0.15 94 1007.1
20260506020204 16 159 1.6 4.8 0.00 0.13 0.13 93 1007.4
20260506015204 16 187 3.2 4.8 0.00 0.13 0.13 93 1007.2
20260506014704 16 176 3.2 8.0 0.00 0.13 0.13 94 1007.1
20260506014204 16 154 3.2 4.8 0.00 0.13 0.13 94 1007.0
20260506013704 16 168 3.2 4.8 0.00 0.13 0.13 94 1007.0
20260506013204 16 178 0.0 4.8 0.00 0.13 0.13 94 1007.0
20260506011705 16 136 4.8 4.8 0.00 0.13 0.13 94 1006.9